This demonstration page uses our WeatherBlox Daily Observations layout. Learn more.

Left ArrowRight Arrow

41.86663, -103.66717

Hourly Observations for November 6, 2019

Temp ( °F °C ) Dew Point ( °F °C ) Humidity (%) Winds ( mph kmh ) Pressure ( in mb ) Visibility ( mi km ) Precip ( " mm )
12:53 am 00:53 Clear 29 -1.7 26 -3.3 89 89 N 6 9 30.11 1020 10 16 0.00 0.00
1:53 am 01:53 Clear 27 -2.8 25 -3.9 92 92 NW 5 7 30.10 1019 10 16 0.00 0.00
2:53 am 02:53 Clear 28 -2.2 25 -3.9 88 88 NW 5 7 30.09 1019 10 16 0.00 0.00
3:53 am 03:53 Clear 28 -2.2 26 -3.3 92 92 NNE 13 20 30.11 1020 10 16 0.00 0.00
4:46 am 04:46 Partly Cloudy 32 0 30 -1 93 93 NE 16 26 30.24 1024 10 16 0.00 0.00
4:53 am 04:53 Mostly Cloudy 32 0 32 0 100 100 NE 12 19 30.16 1021 10 16 0.00 0.00
5:53 am 05:53 Cloudy 34 1.1 33 0.6 97 97 NE 13 20 30.20 1023 7 11 0.00 0.00
6:34 am 06:34 Cloudy 34 1.1 33 0.6 97 97 NE 5 7 30.31 1027 10 16 0.00 0.00
6:53 am 06:53 Cloudy 34 1.1 32 0 92 92 NE 13 20 30.28 1026 10 16 0.00 0.00
7:53 am 07:53 Cloudy 31 -0.6 29 -1.7 92 92 NE 13 20 30.36 1028 10 16 0.00 0.00
8:21 am 08:21 Cloudy 31 -0.6 29 -1.7 92 92 NNE 9 15 30.43 1031 10 16 0.00 0.00
8:53 am 08:53 Cloudy 31 -0.6 27 -2.8 85 85 NE 13 20 30.39 1029 10 16 0.00 0.00
9:53 am 09:53 Cloudy 30 -1.1 27 -2.8 88 88 NNE 13 20 30.41 1030 10 16 0.00 0.00
10:53 am 10:53 Cloudy 30 -1.1 26 -3.3 85 85 NE 12 19 30.43 1031 10 16 0.00 0.00
11:53 am 11:53 Cloudy 30 -1.1 26 -3.3 85 85 ENE 10 17 30.43 1030 10 16 0.00 0.00
12:53 pm 12:53 Cloudy 30 -1.1 25 -3.9 82 82 ENE 13 20 30.43 1030 10 16 0.00 0.00
1:53 pm 13:53 Cloudy 30 -1.1 24 -4.4 79 79 ENE 10 17 30.45 1031 10 16 0.00 0.00
2:53 pm 14:53 Cloudy 27 -2.8 23 -5 85 85 NNE 14 22 30.48 1032 10 16 0.00 0.00
3:53 pm 15:53 Cloudy 25 -3.9 23 -5 92 92 NE 12 19 30.52 1034 7 11 0.00 0.00
4:53 pm 16:53 Cloudy with Mist and Fog 24 -4.4 22 -5.6 91 91 NE 9 15 30.53 1034 5 8 0.00 0.00
5:53 pm 17:53 Cloudy with Mist and Fog 24 -4.4 22 -5.6 91 91 ENE 7 11 30.55 1035 5 8 0.00 0.00
6:53 pm 18:53 Cloudy with Mist and Fog 23 -5 22 -5.6 96 96 E 7 11 30.57 1035 6 10 0.00 0.00
7:35 pm 19:35 Cloudy 23 -5 22 -5.6 96 96 ESE 7 11 30.68 1039 10 16 0.00 0.00
7:53 pm 19:53 Cloudy 23 -5 21 -6.1 92 92 E 6 9 30.58 1036 10 16 0.00 0.00
8:46 pm 20:46 Cloudy 23 -5 21 -6 93 93 E 7 11 30.68 1039 10 16 0.00 0.00
8:53 pm 20:53 Cloudy 23 -5 21 -6.1 92 92 ESE 7 11 30.59 1036 10 16 0.00 0.00
9:17 pm 21:17 Cloudy 23 -5 21 -6.1 92 92 ESE 7 11 30.69 1039 10 16 0.00 0.00
9:53 pm 21:53 Cloudy 23 -5 21 -6.1 92 92 ESE 6 9 30.61 1037 10 16 0.00 0.00
10:53 pm 22:53 Cloudy 23 -5 21 -6.1 92 92 SSE 5 7 30.60 1036 10 16 0.00 0.00
11:53 pm 23:53 Cloudy 23 -5 21 -6.1 92 92 SE 5 7 30.59 1036 10 16 0.00 0.00

Powered by AerisWeather